{"data":{"norad_id":48975,"epoch":"2026-05-25T05:27:50.764896Z","epoch_age_seconds":55065,"freshness":"FRESH","line1":"1 48975U 21060J   26145.22767089  .00000058  00000+0  11694-3 0  9997","line2":"2 48975  87.9105 233.3296 0001906  96.4451 263.6897 13.16592980236565","mean_motion":13.1659298,"eccentricity":0.0001906,"inclination_deg":87.9105,"raan_deg":233.3296,"arg_perigee_deg":96.4451,"mean_anomaly_deg":263.6897,"bstar":0.00011694,"rev_number":23656,"period_min":109.37320963082,"perigee_km":1196.3175995392,"apogee_km":1199.2055320725,"semimajor_km":7575.8985658058,"source":"CELESTRAK","updated_at":"2026-05-25T13:38:22.451229Z"}}